| time (UTC) | temp C | wind direction | speed KPH | gust KPH | rain 1hr cm | rain 24hr cm | rain mn cm | humidity % | barometer mb |
| 20260508231803 | 8 | 47 | 0.0 | 0.0 | 0.00 | 0.00 | 0.00 | 86 | 1018.0 |
| 20260508231303 | 8 | 47 | 0.0 | 0.0 | 0.00 | 0.00 | 0.00 | 85 | 1018.0 |
| 20260508230802 | 8 | 47 | 0.0 | 0.0 | 0.00 | 0.00 | 0.00 | 85 | 1018.0 |
| 20260508230303 | 8 | 47 | 0.0 | 0.0 | 0.00 | 0.00 | 0.00 | 85 | 1018.0 |
| 20260508225804 | 8 | 47 | 0.0 | 0.0 | 0.00 | 0.00 | 0.00 | 85 | 1018.0 |
| 20260508225306 | 8 | 47 | 0.0 | 0.0 | 0.00 | 0.00 | 0.00 | 84 | 1017.9 |
| 20260508224809 | 8 | 47 | 0.0 | 0.0 | 0.00 | 0.00 | 0.00 | 84 | 1017.9 |
| 20260508224803 | 8 | 47 | 0.0 | 0.0 | 0.00 | 0.00 | 0.00 | 84 | 1017.9 |
| 20260508223804 | 9 | 47 | 0.0 | 0.0 | 0.00 | 0.00 | 0.00 | 83 | 1017.9 |
| 20260508223526 | 9 | 47 | 0.0 | 0.0 | 0.00 | 0.00 | 0.00 | 82 | 1017.9 |
| 20260508222801 | 9 | 47 | 0.0 | 0.0 | 0.00 | 0.00 | 0.00 | 82 | 1017.9 |
| 20260508222306 | 9 | 47 | 0.0 | 0.0 | 0.00 | 0.00 | 0.00 | 82 | 1017.9 |
| 20260508221801 | 9 | 47 | 0.0 | 0.0 | 0.00 | 0.00 | 0.00 | 81 | 1017.9 |
| 20260508221255 | 10 | 47 | 0.0 | 0.0 | 0.00 | 0.00 | 0.00 | 81 | 1017.9 |
| 20260508220753 | 10 | 47 | 0.0 | 0.0 | 0.00 | 0.00 | 0.00 | 81 | 1017.9 |
| 20260508220249 | 10 | 47 | 0.0 | 0.0 | 0.00 | 0.00 | 0.00 | 80 | 1017.9 |
| 20260508220029 | 10 | 47 | 0.0 | 0.0 | 0.00 | 0.00 | 0.00 | 80 | 1017.9 |
| 20260508215525 | 10 | 47 | 0.0 | 0.0 | 0.00 | 0.00 | 0.00 | 80 | 1017.9 |
| 20260508214747 | 10 | 47 | 0.0 | 0.0 | 0.00 | 0.00 | 0.00 | 80 | 1018.0 |
| 20260508214245 | 10 | 47 | 0.0 | 0.0 | 0.00 | 0.00 | 0.00 | 79 | 1017.9 |
| 20260508213746 | 10 | 47 | 0.0 | 0.0 | 0.00 | 0.00 | 0.00 | 78 | 1018.0 |
| 20260508213244 | 10 | 47 | 0.0 | 0.0 | 0.00 | 0.00 | 0.00 | 78 | 1017.9 |
| 20260508212745 | 10 | 47 | 0.0 | 0.0 | 0.00 | 0.00 | 0.00 | 77 | 1017.9 |
| 20260508212543 | 11 | 47 | 0.0 | 0.0 | 0.00 | 0.00 | 0.00 | 76 | 1017.8 |
| 20260508212538 | 11 | 47 | 0.0 | 0.0 | 0.00 | 0.00 | 0.00 | 77 | 1017.8 |
| 20260508211244 | 11 | 47 | 0.0 | 0.0 | 0.00 | 0.00 | 0.00 | 75 | 1017.7 |
| 20260508210741 | 11 | 47 | 0.0 | 0.0 | 0.00 | 0.00 | 0.00 | 75 | 1017.6 |
| 20260508210244 | 11 | 47 | 0.0 | 0.0 | 0.00 | 0.00 | 0.00 | 74 | 1017.6 |
| 20260508210016 | 11 | 47 | 0.0 | 0.0 | 0.00 | 0.00 | 0.00 | 73 | 1017.6 |
| 20260508205239 | 11 | 47 | 0.0 | 0.0 | 0.00 | 0.00 | 0.00 | 73 | 1017.5 |
| 20260508204739 | 12 | 47 | 0.0 | 1.6 | 0.00 | 0.00 | 0.00 | 72 | 1017.5 |
| 20260508204242 | 12 | 47 | 0.0 | 3.2 | 0.00 | 0.00 | 0.00 | 72 | 1017.5 |
| 20260508203739 | 12 | 47 | 0.0 | 3.2 | 0.00 | 0.00 | 0.00 | 72 | 1017.6 |
| 20260508203237 | 12 | 98 | 0.0 | 3.2 | 0.00 | 0.00 | 0.00 | 71 | 1017.5 |
| 20260508202740 | 12 | 101 | 0.0 | 3.2 | 0.00 | 0.00 | 0.00 | 70 | 1017.5 |
| 20260508202239 | 12 | 78 | 0.0 | 1.6 | 0.00 | 0.00 | 0.00 | 70 | 1017.4 |
| 20260508201739 | 12 | 78 | 0.0 | 1.6 | 0.00 | 0.00 | 0.00 | 69 | 1017.3 |
| 20260508201237 | 13 | 78 | 0.0 | 4.8 | 0.00 | 0.00 | 0.00 | 69 | 1017.3 |
| 20260508201016 | 13 | 80 | 0.0 | 4.8 | 0.00 | 0.00 | 0.00 | 68 | 1017.2 |
| 20260508200238 | 13 | 306 | 0.0 | 3.2 | 0.00 | 0.00 | 0.00 | 67 | 1017.2 |
| 20260508195740 | 13 | 120 | 0.0 | 3.2 | 0.00 | 0.00 | 0.00 | 67 | 1017.2 |
| 20260508195239 | 13 | 35 | 0.0 | 3.2 | 0.00 | 0.00 | 0.00 | 66 | 1017.1 |
| 20260508194740 | 13 | 62 | 0.0 | 3.2 | 0.00 | 0.00 | 0.00 | 66 | 1017.1 |
| 20260508194516 | 13 | 92 | 0.0 | 4.8 | 0.00 | 0.00 | 0.00 | 65 | 1016.9 |
| 20260508193739 | 14 | 342 | 0.0 | 4.8 | 0.00 | 0.00 | 0.00 | 65 | 1016.9 |
| 20260508193236 | 14 | 84 | 0.0 | 3.2 | 0.00 | 0.00 | 0.00 | 64 | 1016.9 |
| 20260508192735 | 14 | 349 | 0.0 | 3.2 | 0.00 | 0.00 | 0.00 | 64 | 1016.9 |
| 20260508192231 | 14 | 53 | 0.0 | 3.2 | 0.00 | 0.00 | 0.00 | 64 | 1016.7 |
| 20260508191732 | 15 | 0 | 0.0 | 3.2 | 0.00 | 0.00 | 0.00 | 63 | 1016.7 |
| 20260508191231 | 15 | 5 | 0.0 | 4.8 | 0.00 | 0.00 | 0.00 | 63 | 1016.5 |
| 20260508191009 | 15 | 5 | 0.0 | 4.8 | 0.00 | 0.00 | 0.00 | 62 | 1016.5 |
| 20260508190231 | 15 | 57 | 0.0 | 4.8 | 0.00 | 0.00 | 0.00 | 62 | 1016.5 |
| 20260508185731 | 15 | 107 | 0.0 | 3.2 | 0.00 | 0.00 | 0.00 | 61 | 1016.4 |
| 20260508185233 | 15 | 135 | 0.0 | 4.8 | 0.00 | 0.00 | 0.00 | 61 | 1016.4 |
| 20260508184732 | 15 | 55 | 0.0 | 4.8 | 0.00 | 0.00 | 0.00 | 60 | 1016.3 |
| 20260508184516 | 15 | 172 | 1.6 | 8.0 | 0.00 | 0.00 | 0.00 | 60 | 1016.2 |
| 20260508184015 | 15 | 124 | 1.6 | 8.0 | 0.00 | 0.00 | 0.00 | 59 | 1016.2 |
| 20260508183231 | 16 | 174 | 1.6 | 6.4 | 0.00 | 0.00 | 0.00 | 59 | 1016.1 |
| 20260508182732 | 16 | 0 | 1.6 | 8.0 | 0.00 | 0.00 | 0.00 | 59 | 1016.1 |
| 20260508182232 | 16 | 103 | 1.6 | 8.0 | 0.00 | 0.00 | 0.00 | 58 | 1016.1 |
| 20260508181734 | 16 | 348 | 1.6 | 9.7 | 0.00 | 0.00 | 0.00 | 58 | 1016.1 |
| 20260508181254 | 16 | 159 | 1.6 | 6.4 | 0.00 | 0.00 | 0.00 | 58 | 1016.0 |
| 20260508181246 | 16 | 118 | 1.6 | 9.7 | 0.00 | 0.00 | 0.00 | 58 | 1016.1 |
| 20260508180224 | 16 | 71 | 1.6 | 6.4 | 0.00 | 0.00 | 0.00 | 57 | 1016.1 |
| 20260508175719 | 16 | 9 | 1.6 | 6.4 | 0.00 | 0.00 | 0.00 | 57 | 1016.0 |
| 20260508175212 | 16 | 153 | 1.6 | 8.0 | 0.00 | 0.00 | 0.00 | 56 | 1016.0 |
| 20260508174710 | 16 | 105 | 1.6 | 8.0 | 0.00 | 0.00 | 0.00 | 56 | 1016.0 |
| 20260508174210 | 16 | 17 | 1.6 | 8.0 | 0.00 | 0.00 | 0.00 | 57 | 1016.0 |
| 20260508173709 | 17 | 140 | 1.6 | 8.0 | 0.00 | 0.00 | 0.00 | 56 | 1015.9 |
| 20260508173209 | 17 | 65 | 1.6 | 4.8 | 0.00 | 0.00 | 0.00 | 57 | 1015.9 |
| 20260508172711 | 17 | 46 | 1.6 | 8.0 | 0.00 | 0.00 | 0.00 | 57 | 1015.9 |
| 20260508172209 | 17 | 258 | 0.0 | 8.0 | 0.00 | 0.00 | 0.00 | 56 | 1015.9 |
| 20260508171707 | 17 | 279 | 0.0 | 4.8 | 0.00 | 0.00 | 0.00 | 57 | 1015.9 |
| 20260508171207 | 17 | 94 | 1.6 | 11.3 | 0.00 | 0.00 | 0.00 | 56 | 1015.9 |
| 20260508170704 | 17 | 51 | 1.6 | 11.3 | 0.00 | 0.00 | 0.00 | 56 | 1015.9 |
| 20260508170202 | 17 | 341 | 1.6 | 11.3 | 0.00 | 0.00 | 0.00 | 57 | 1015.8 |
| 20260508165704 | 17 | 303 | 1.6 | 6.4 | 0.00 | 0.00 | 0.00 | 56 | 1015.8 |
| 20260508165204 | 17 | 121 | 1.6 | 4.8 | 0.00 | 0.00 | 0.00 | 55 | 1015.8 |
| 20260508164702 | 17 | 66 | 1.6 | 6.4 | 0.00 | 0.00 | 0.00 | 55 | 1015.7 |
| 20260508164205 | 17 | 312 | 1.6 | 6.4 | 0.00 | 0.00 | 0.00 | 53 | 1015.7 |
| 20260508163704 | 17 | 0 | 1.6 | 4.8 | 0.00 | 0.00 | 0.00 | 53 | 1015.6 |
| 20260508163207 | 17 | 20 | 0.0 | 4.8 | 0.00 | 0.00 | 0.00 | 52 | 1015.6 |
| 20260508162703 | 17 | 78 | 0.0 | 4.8 | 0.00 | 0.00 | 0.00 | 53 | 1015.6 |
| 20260508162204 | 17 | 125 | 1.6 | 6.4 | 0.00 | 0.00 | 0.00 | 53 | 1015.5 |
| 20260508161701 | 17 | 73 | 1.6 | 6.4 | 0.00 | 0.00 | 0.00 | 52 | 1015.6 |
| 20260508161154 | 17 | 44 | 0.0 | 3.2 | 0.00 | 0.00 | 0.00 | 53 | 1015.6 |
| 20260508160648 | 17 | 12 | 1.6 | 4.8 | 0.00 | 0.00 | 0.00 | 52 | 1015.7 |
| 20260508160142 | 17 | 63 | 0.0 | 4.8 | 0.00 | 0.00 | 0.00 | 51 | 1015.7 |
| 20260508155643 | 17 | 215 | 0.0 | 3.2 | 0.00 | 0.00 | 0.00 | 52 | 1015.7 |
| 20260508155425 | 17 | 40 | 0.0 | 3.2 | 0.00 | 0.00 | 0.00 | 52 | 1015.8 |
| 20260508154642 | 17 | 40 | 1.6 | 4.8 | 0.00 | 0.00 | 0.00 | 52 | 1015.8 |
| 20260508154418 | 17 | 123 | 1.6 | 6.4 | 0.00 | 0.00 | 0.00 | 51 | 1015.7 |
| 20260508153639 | 17 | 182 | 1.6 | 11.3 | 0.00 | 0.00 | 0.00 | 51 | 1015.7 |
| 20260508153234 | 17 | 100 | 1.6 | 4.8 | 0.00 | 0.00 | 0.00 | 52 | 1015.7 |
| 20260508153217 | 17 | 92 | 1.6 | 11.3 | 0.00 | 0.00 | 0.00 | 51 | 1015.7 |
| 20260508152939 | 17 | 50 | 1.6 | 4.8 | 0.00 | 0.00 | 0.00 | 51 | 1015.7 |
| 20260508151638 | 17 | 258 | 0.0 | 4.8 | 0.00 | 0.00 | 0.00 | 52 | 1015.8 |
| 20260508151141 | 17 | 213 | 0.0 | 6.4 | 0.00 | 0.00 | 0.00 | 52 | 1015.8 |
| 20260508150639 | 17 | 43 | 1.6 | 4.8 | 0.00 | 0.00 | 0.00 | 52 | 1015.9 |
| 20260508150138 | 17 | 196 | 1.6 | 4.8 | 0.00 | 0.00 | 0.00 | 51 | 1015.9 |
| 20260508145639 | 17 | 169 | 0.0 | 3.2 | 0.00 | 0.00 | 0.00 | 51 | 1015.9 |
| 20260508145138 | 17 | 169 | 0.0 | 3.2 | 0.00 | 0.00 | 0.00 | 49 | 1015.8 |
| 20260508144916 | 17 | 143 | 0.0 | 4.8 | 0.00 | 0.00 | 0.00 | 51 | 1015.8 |
| 20260508144137 | 17 | 322 | 1.6 | 4.8 | 0.00 | 0.00 | 0.00 | 51 | 1015.8 |
| 20260508143631 | 17 | 118 | 1.6 | 4.8 | 0.00 | 0.00 | 0.00 | 52 | 1015.8 |
| 20260508143133 | 17 | 209 | 1.6 | 6.4 | 0.00 | 0.00 | 0.00 | 51 | 1015.8 |
| 20260508142633 | 17 | 350 | 0.0 | 6.4 | 0.00 | 0.00 | 0.00 | 52 | 1015.8 |
| 20260508142413 | 17 | 59 | 0.0 | 4.8 | 0.00 | 0.00 | 0.00 | 52 | 1015.9 |
| 20260508141911 | 17 | 19 | 1.6 | 8.0 | 0.00 | 0.00 | 0.00 | 52 | 1015.9 |
| 20260508141422 | 17 | 34 | 1.6 | 8.0 | 0.00 | 0.00 | 0.00 | 52 | 1015.9 |
| 20260508140700 | 17 | 118 | 1.6 | 4.8 | 0.00 | 0.00 | 0.00 | 52 | 1015.8 |
| 20260508140650 | 17 | 71 | 1.6 | 4.8 | 0.00 | 0.00 | 0.00 | 51 | 1015.9 |
| 20260508135631 | 17 | 42 | 1.6 | 6.4 | 0.00 | 0.00 | 0.00 | 52 | 1015.9 |
| 20260508135131 | 17 | 94 | 0.0 | 6.4 | 0.00 | 0.00 | 0.00 | 53 | 1016.0 |
| 20260508134703 | 17 | 202 | 1.6 | 6.4 | 0.00 | 0.00 | 0.00 | 53 | 1016.0 |
| 20260508134652 | 17 | 103 | 1.6 | 6.4 | 0.00 | 0.00 | 0.00 | 53 | 1016.0 |
| 20260508133631 | 17 | 187 | 1.6 | 9.7 | 0.00 | 0.00 | 0.00 | 53 | 1016.1 |
| 20260508133132 | 17 | 127 | 1.6 | 9.7 | 0.00 | 0.00 | 0.00 | 53 | 1016.1 |
| 20260508132632 | 17 | 106 | 3.2 | 14.5 | 0.00 | 0.00 | 0.00 | 53 | 1016.1 |
| 20260508132133 | 17 | 253 | 3.2 | 14.5 | 0.00 | 0.00 | 0.00 | 53 | 1016.1 |
| 20260508131629 | 18 | 184 | 1.6 | 9.7 | 0.00 | 0.00 | 0.00 | 52 | 1016.0 |
| 20260508131130 | 18 | 177 | 1.6 | 9.7 | 0.00 | 0.00 | 0.00 | 52 | 1016.0 |
| 20260508130909 | 18 | 150 | 1.6 | 9.7 | 0.00 | 0.00 | 0.00 | 52 | 1016.0 |
| 20260508130130 | 18 | 246 | 1.6 | 9.7 | 0.00 | 0.00 | 0.00 | 52 | 1015.9 |
| 20260508125628 | 18 | 152 | 1.6 | 8.0 | 0.00 | 0.00 | 0.00 | 52 | 1015.9 |
| 20260508125125 | 18 | 101 | 1.6 | 8.0 | 0.00 | 0.00 | 0.00 | 52 | 1015.9 |
| 20260508124626 | 18 | 238 | 1.6 | 9.7 | 0.00 | 0.00 | 0.00 | 52 | 1016.0 |
| 20260508124125 | 18 | 88 | 1.6 | 9.7 | 0.00 | 0.00 | 0.00 | 52 | 1016.1 |
| 20260508123627 | 18 | 97 | 3.2 | 6.4 | 0.00 | 0.00 | 0.00 | 51 | 1016.1 |
| 20260508123126 | 18 | 218 | 3.2 | 8.0 | 0.00 | 0.00 | 0.00 | 50 | 1016.1 |
| 20260508122624 | 18 | 98 | 1.6 | 8.0 | 0.00 | 0.00 | 0.00 | 51 | 1016.1 |
| 20260508122125 | 18 | 119 | 1.6 | 11.3 | 0.00 | 0.00 | 0.00 | 51 | 1016.1 |
| 20260508121625 | 18 | 35 | 3.2 | 11.3 | 0.00 | 0.00 | 0.00 | 51 | 1016.1 |
| 20260508121126 | 18 | 115 | 3.2 | 9.7 | 0.00 | 0.00 | 0.00 | 51 | 1016.0 |
| 20260508120624 | 18 | 330 | 3.2 | 8.0 | 0.00 | 0.00 | 0.00 | 51 | 1016.1 |
| 20260508120125 | 18 | 115 | 3.2 | 8.0 | 0.00 | 0.00 | 0.00 | 51 | 1016.1 |
| 20260508115626 | 19 | 188 | 1.6 | 9.7 | 0.00 | 0.00 | 0.00 | 50 | 1016.1 |
| 20260508115125 | 19 | 155 | 1.6 | 9.7 | 0.00 | 0.00 | 0.00 | 50 | 1016.1 |
| 20260508114628 | 19 | 223 | 1.6 | 6.4 | 0.00 | 0.00 | 0.00 | 50 | 1016.1 |
| 20260508114126 | 19 | 96 | 1.6 | 6.4 | 0.00 | 0.00 | 0.00 | 49 | 1016.0 |
| 20260508113625 | 19 | 0 | 3.2 | 6.4 | 0.00 | 0.00 | 0.00 | 49 | 1016.1 |
| 20260508113125 | 19 | 146 | 1.6 | 6.4 | 0.00 | 0.00 | 0.00 | 49 | 1016.2 |
| 20260508112624 | 19 | 206 | 1.6 | 8.0 | 0.00 | 0.00 | 0.00 | 48 | 1016.1 |
| 20260508112125 | 19 | 250 | 1.6 | 8.0 | 0.00 | 0.00 | 0.00 | 50 | 1016.1 |
| 20260508111626 | 19 | 165 | 1.6 | 8.0 | 0.00 | 0.00 | 0.00 | 49 | 1016.1 |
| 20260508111125 | 18 | 85 | 1.6 | 12.9 | 0.00 | 0.00 | 0.00 | 50 | 1016.1 |
| 20260508110624 | 18 | 252 | 1.6 | 12.9 | 0.00 | 0.00 | 0.00 | 49 | 1016.1 |
| 20260508110405 | 18 | 211 | 1.6 | 9.7 | 0.00 | 0.00 | 0.00 | 48 | 1016.1 |
| 20260508105622 | 18 | 146 | 1.6 | 8.0 | 0.00 | 0.00 | 0.00 | 50 | 1016.1 |
| 20260508105122 | 18 | 143 | 1.6 | 8.0 | 0.00 | 0.00 | 0.00 | 49 | 1016.0 |
| 20260508104621 | 18 | 241 | 1.6 | 6.4 | 0.00 | 0.00 | 0.00 | 51 | 1016.1 |
| 20260508104117 | 18 | 198 | 1.6 | 6.4 | 0.00 | 0.00 | 0.00 | 54 | 1016.1 |
| 20260508103618 | 18 | 123 | 1.6 | 9.7 | 0.00 | 0.00 | 0.00 | 54 | 1016.1 |
| 20260508103118 | 18 | 207 | 1.6 | 9.7 | 0.00 | 0.00 | 0.00 | 53 | 1016.2 |
| 20260508102616 | 18 | 91 | 1.6 | 8.0 | 0.00 | 0.00 | 0.00 | 54 | 1016.1 |
| 20260508102116 | 17 | 107 | 1.6 | 8.0 | 0.00 | 0.00 | 0.00 | 56 | 1016.2 |
| 20260508101617 | 17 | 118 | 3.2 | 11.3 | 0.00 | 0.00 | 0.00 | 54 | 1016.3 |
| 20260508101114 | 17 | 76 | 3.2 | 11.3 | 0.00 | 0.00 | 0.00 | 54 | 1016.3 |
| 20260508100850 | 17 | 196 | 3.2 | 9.7 | 0.00 | 0.00 | 0.00 | 53 | 1016.4 |
| 20260508100113 | 17 | 67 | 1.6 | 6.4 | 0.00 | 0.00 | 0.00 | 53 | 1016.4 |
| 20260508095853 | 17 | 30 | 1.6 | 6.4 | 0.00 | 0.00 | 0.00 | 53 | 1016.4 |
| 20260508095113 | 17 | 210 | 1.6 | 6.4 | 0.00 | 0.00 | 0.00 | 55 | 1016.3 |
| 20260508094609 | 17 | 76 | 1.6 | 6.4 | 0.00 | 0.00 | 0.00 | 59 | 1016.3 |
| 20260508094110 | 16 | 245 | 1.6 | 6.4 | 0.00 | 0.00 | 0.00 | 60 | 1016.2 |
| 20260508093607 | 16 | 329 | 1.6 | 6.4 | 0.00 | 0.00 | 0.00 | 62 | 1016.3 |
| 20260508093106 | 16 | 132 | 1.6 | 9.7 | 0.00 | 0.00 | 0.00 | 63 | 1016.2 |
| 20260508092604 | 16 | 107 | 1.6 | 9.7 | 0.00 | 0.00 | 0.00 | 68 | 1016.2 |
| 20260508092347 | 15 | 103 | 1.6 | 6.4 | 0.00 | 0.00 | 0.00 | 69 | 1016.2 |
| 20260508091602 | 15 | 112 | 1.6 | 6.4 | 0.00 | 0.00 | 0.00 | 72 | 1016.2 |
| 20260508091103 | 15 | 68 | 1.6 | 4.8 | 0.00 | 0.00 | 0.00 | 73 | 1016.3 |
| 20260508090603 | 14 | 355 | 1.6 | 4.8 | 0.00 | 0.00 | 0.00 | 72 | 1016.3 |
| 20260508090105 | 14 | 187 | 1.6 | 4.8 | 0.00 | 0.00 | 0.00 | 72 | 1016.3 |
| 20260508085603 | 14 | 203 | 1.6 | 4.8 | 0.00 | 0.00 | 0.00 | 73 | 1016.4 |
| 20260508085341 | 14 | 92 | 1.6 | 11.3 | 0.00 | 0.00 | 0.00 | 73 | 1016.4 |
| 20260508084603 | 14 | 187 | 1.6 | 11.3 | 0.00 | 0.00 | 0.00 | 73 | 1016.4 |
| 20260508084102 | 14 | 177 | 1.6 | 9.7 | 0.00 | 0.00 | 0.00 | 75 | 1016.4 |
| 20260508083602 | 13 | 153 | 1.6 | 4.8 | 0.00 | 0.00 | 0.00 | 75 | 1016.3 |
| 20260508083102 | 13 | 169 | 1.6 | 6.4 | 0.00 | 0.00 | 0.00 | 76 | 1016.3 |
| 20260508082604 | 13 | 217 | 0.0 | 6.4 | 0.00 | 0.00 | 0.00 | 77 | 1016.2 |
| 20260508082104 | 13 | 115 | 1.6 | 6.4 | 0.00 | 0.00 | 0.00 | 78 | 1016.2 |
| 20260508081604 | 13 | 141 | 1.6 | 8.0 | 0.00 | 0.00 | 0.00 | 79 | 1016.2 |
| 20260508081102 | 13 | 161 | 1.6 | 11.3 | 0.00 | 0.00 | 0.00 | 80 | 1016.2 |
| 20260508080603 | 12 | 65 | 1.6 | 11.3 | 0.00 | 0.00 | 0.00 | 80 | 1016.2 |
| 20260508080104 | 12 | 93 | 1.6 | 4.8 | 0.00 | 0.00 | 0.00 | 81 | 1016.3 |
| 20260508075844 | 12 | 208 | 1.6 | 4.8 | 0.00 | 0.00 | 0.00 | 82 | 1016.3 |
| 20260508075442 | 12 | 149 | 1.6 | 4.8 | 0.00 | 0.00 | 0.00 | 84 | 1016.3 |
| 20260508075155 | 12 | 96 | 1.6 | 4.8 | 0.00 | 0.00 | 0.00 | 84 | 1016.3 |
| 20260508075141 | 12 | 44 | 0.0 | 4.8 | 0.00 | 0.00 | 0.00 | 83 | 1016.3 |
| 20260508073604 | 12 | 131 | 1.6 | 6.4 | 0.00 | 0.00 | 0.00 | 85 | 1016.2 |
| 20260508073344 | 12 | 190 | 1.6 | 6.4 | 0.00 | 0.00 | 0.00 | 86 | 1016.2 |
| 20260508072602 | 11 | 68 | 1.6 | 4.8 | 0.00 | 0.00 | 0.00 | 87 | 1016.2 |
| 20260508072102 | 11 | 18 | 1.6 | 6.4 | 0.00 | 0.00 | 0.00 | 88 | 1016.2 |
| 20260508071604 | 11 | 128 | 1.6 | 6.4 | 0.00 | 0.00 | 0.00 | 89 | 1016.2 |
| 20260508071346 | 11 | 170 | 0.0 | 4.8 | 0.00 | 0.00 | 0.00 | 91 | 1016.2 |
| 20260508070603 | 10 | 28 | 0.0 | 4.8 | 0.00 | 0.00 | 0.00 | 91 | 1016.1 |
| 20260508070345 | 10 | 331 | 0.0 | 4.8 | 0.00 | 0.00 | 0.00 | 92 | 1016.1 |
| 20260508065603 | 10 | 161 | 1.6 | 4.8 | 0.00 | 0.00 | 0.00 | 92 | 1016.2 |
| 20260508065102 | 10 | 30 | 1.6 | 4.8 | 0.00 | 0.00 | 0.00 | 93 | 1016.1 |
| 20260508064602 | 10 | 73 | 0.0 | 4.8 | 0.00 | 0.00 | 0.00 | 94 | 1016.1 |
| 20260508064102 | 9 | 184 | 0.0 | 4.8 | 0.00 | 0.00 | 0.00 | 95 | 1016.1 |
| 20260508063603 | 9 | 74 | 0.0 | 3.2 | 0.00 | 0.00 | 0.00 | 95 | 1016.1 |
| 20260508063343 | 8 | 74 | 0.0 | 3.2 | 0.00 | 0.00 | 0.00 | 95 | 1016.1 |
| 20260508062844 | 8 | 355 | 0.0 | 3.2 | 0.00 | 0.00 | 0.00 | 95 | 1016.0 |
| 20260508062103 | 7 | 355 | 0.0 | 1.6 | 0.00 | 0.00 | 0.00 | 95 | 1016.0 |
| 20260508061605 | 7 | 355 | 0.0 | 1.6 | 0.00 | 0.00 | 0.00 | 95 | 1015.9 |
| 20260508061104 | 7 | 355 | 0.0 | 1.6 | 0.00 | 0.00 | 0.00 | 95 | 1015.9 |
| 20260508060602 | 7 | 355 | 0.0 | 1.6 | 0.00 | 0.00 | 0.00 | 95 | 1016.0 |
| 20260508055604 | 7 | 355 | 0.0 | 3.2 | 0.00 | 0.00 | 0.00 | 95 | 1016.0 |
| 20260508055340 | 7 | 355 | 0.0 | 1.6 | 0.00 | 0.00 | 0.00 | 95 | 1015.9 |
| 20260508054603 | 6 | 355 | 0.0 | 1.6 | 0.00 | 0.00 | 0.00 | 95 | 1015.9 |
| 20260508054344 | 6 | 355 | 0.0 | 1.6 | 0.00 | 0.00 | 0.00 | 95 | 1015.9 |
| 20260508053603 | 6 | 355 | 0.0 | 1.6 | 0.00 | 0.00 | 0.00 | 95 | 1015.9 |
| 20260508053103 | 6 | 355 | 0.0 | 1.6 | 0.00 | 0.00 | 0.00 | 95 | 1015.8 |
| 20260508052843 | 6 | 355 | 0.0 | 1.6 | 0.00 | 0.00 | 0.00 | 95 | 1015.9 |
| 20260508052341 | 6 | 355 | 0.0 | 1.6 | 0.00 | 0.00 | 0.00 | 95 | 1015.8 |
| 20260508051602 | 5 | 355 | 0.0 | 0.0 | 0.00 | 0.00 | 0.00 | 94 | 1015.8 |
| 20260508051343 | 5 | 355 | 0.0 | 0.0 | 0.00 | 0.00 | 0.00 | 94 | 1015.8 |
| 20260508050601 | 5 | 355 | 0.0 | 0.0 | 0.00 | 0.00 | 0.00 | 94 | 1015.8 |
| 20260508050104 | 5 | 355 | 0.0 | 0.0 | 0.00 | 0.00 | 0.00 | 94 | 1015.8 |
| 20260508045603 | 5 | 355 | 0.0 | 0.0 | 0.00 | 0.00 | 0.00 | 93 | 1015.8 |
| 20260508045102 | 5 | 355 | 0.0 | 0.0 | 0.00 | 0.00 | 0.00 | 93 | 1015.8 |
| 20260508044604 | 5 | 355 | 0.0 | 0.0 | 0.00 | 0.00 | 0.00 | 93 | 1015.8 |
| 20260508044104 | 5 | 355 | 0.0 | 0.0 | 0.00 | 0.00 | 0.00 | 93 | 1015.7 |
| 20260508043603 | 5 | 355 | 0.0 | 0.0 | 0.00 | 0.00 | 0.00 | 93 | 1015.6 |
| 20260508043102 | 5 | 355 | 0.0 | 0.0 | 0.00 | 0.00 | 0.00 | 93 | 1015.7 |
| 20260508042603 | 5 | 355 | 0.0 | 0.0 | 0.00 | 0.00 | 0.00 | 93 | 1015.7 |
| 20260508042105 | 5 | 355 | 0.0 | 0.0 | 0.00 | 0.00 | 0.00 | 93 | 1015.6 |
| 20260508041603 | 5 | 355 | 0.0 | 0.0 | 0.00 | 0.00 | 0.00 | 93 | 1015.6 |
| 20260508041340 | 5 | 355 | 0.0 | 0.0 | 0.00 | 0.00 | 0.00 | 93 | 1015.6 |
| 20260508040604 | 5 | 355 | 0.0 | 0.0 | 0.00 | 0.00 | 0.00 | 93 | 1015.6 |
| 20260508035602 | 5 | 355 | 0.0 | 0.0 | 0.00 | 0.00 | 0.00 | 93 | 1015.5 |
| 20260508035340 | 5 | 355 | 0.0 | 0.0 | 0.00 | 0.00 | 0.00 | 93 | 1015.5 |
| 20260508034601 | 5 | 355 | 0.0 | 0.0 | 0.00 | 0.00 | 0.00 | 93 | 1015.5 |
| 20260508034102 | 5 | 355 | 0.0 | 0.0 | 0.00 | 0.00 | 0.00 | 93 | 1015.5 |
| 20260508033604 | 5 | 355 | 0.0 | 0.0 | 0.00 | 0.00 | 0.00 | 92 | 1015.5 |
| 20260508033338 | 5 | 355 | 0.0 | 0.0 | 0.00 | 0.00 | 0.00 | 92 | 1015.5 |
| 20260508032604 | 5 | 355 | 0.0 | 0.0 | 0.00 | 0.00 | 0.00 | 92 | 1015.5 |
| 20260508032104 | 5 | 355 | 0.0 | 0.0 | 0.00 | 0.00 | 0.00 | 92 | 1015.5 |
| 20260508031601 | 5 | 355 | 0.0 | 0.0 | 0.00 | 0.00 | 0.00 | 92 | 1015.6 |
| 20260508031341 | 5 | 355 | 0.0 | 0.0 | 0.00 | 0.00 | 0.00 | 92 | 1015.6 |
| 20260508030601 | 6 | 355 | 0.0 | 0.0 | 0.00 | 0.00 | 0.00 | 92 | 1015.6 |
| 20260508030104 | 6 | 355 | 0.0 | 0.0 | 0.00 | 0.00 | 0.00 | 92 | 1015.5 |
| 20260508025605 | 6 | 355 | 0.0 | 0.0 | 0.00 | 0.00 | 0.00 | 92 | 1015.6 |
| 20260508025103 | 6 | 355 | 0.0 | 0.0 | 0.00 | 0.00 | 0.00 | 92 | 1015.6 |
| 20260508024603 | 6 | 355 | 0.0 | 0.0 | 0.00 | 0.00 | 0.00 | 92 | 1015.7 |
| 20260508024104 | 6 | 355 | 0.0 | 0.0 | 0.00 | 0.00 | 0.00 | 92 | 1015.6 |
| 20260508023603 | 6 | 355 | 0.0 | 0.0 | 0.00 | 0.00 | 0.00 | 92 | 1015.6 |
| 20260508023102 | 6 | 355 | 0.0 | 0.0 | 0.00 | 0.00 | 0.00 | 92 | 1015.6 |
| 20260508022832 | 6 | 355 | 0.0 | 0.0 | 0.00 | 0.00 | 0.00 | 92 | 1015.6 |
| 20260508022050 | 6 | 355 | 0.0 | 0.0 | 0.00 | 0.00 | 0.00 | 92 | 1015.5 |
| 20260508021542 | 6 | 355 | 0.0 | 0.0 | 0.00 | 0.00 | 0.00 | 92 | 1015.5 |
| 20260508021036 | 6 | 355 | 0.0 | 0.0 | 0.00 | 0.00 | 0.00 | 92 | 1015.5 |
| 20260508020537 | 6 | 355 | 0.0 | 0.0 | 0.00 | 0.00 | 0.00 | 92 | 1015.5 |
| 20260508020034 | 6 | 355 | 0.0 | 0.0 | 0.00 | 0.00 | 0.00 | 92 | 1015.5 |
| 20260508015532 | 6 | 355 | 0.0 | 0.0 | 0.00 | 0.00 | 0.00 | 92 | 1015.5 |
| 20260508015033 | 7 | 355 | 0.0 | 0.0 | 0.00 | 0.00 | 0.00 | 91 | 1015.5 |
| 20260508014531 | 7 | 355 | 0.0 | 0.0 | 0.00 | 0.00 | 0.00 | 91 | 1015.5 |
| 20260508014033 | 7 | 355 | 0.0 | 0.0 | 0.00 | 0.00 | 0.00 | 91 | 1015.6 |
| 20260508013532 | 7 | 355 | 0.0 | 0.0 | 0.00 | 0.00 | 0.00 | 91 | 1015.6 |
| 20260508013032 | 7 | 355 | 0.0 | 0.0 | 0.00 | 0.00 | 0.00 | 91 | 1015.6 |
| 20260508012534 | 7 | 355 | 0.0 | 0.0 | 0.00 | 0.00 | 0.00 | 90 | 1015.6 |
| 20260508012032 | 7 | 355 | 0.0 | 0.0 | 0.00 | 0.00 | 0.00 | 90 | 1015.6 |
| 20260508011531 | 7 | 355 | 0.0 | 0.0 | 0.00 | 0.00 | 0.00 | 90 | 1015.6 |
| 20260508011032 | 7 | 355 | 0.0 | 0.0 | 0.00 | 0.00 | 0.00 | 90 | 1015.5 |
| 20260508010825 | 8 | 355 | 0.0 | 0.0 | 0.00 | 0.00 | 0.00 | 90 | 1015.5 |
| 20260508010820 | 7 | 355 | 0.0 | 0.0 | 0.00 | 0.00 | 0.00 | 90 | 1015.5 |
| 20260508005530 | 8 | 355 | 0.0 | 0.0 | 0.00 | 0.00 | 0.00 | 90 | 1015.4 |
| 20260508005049 | 8 | 355 | 0.0 | 0.0 | 0.00 | 0.00 | 0.00 | 90 | 1015.4 |
| 20260508005042 | 8 | 355 | 0.0 | 0.0 | 0.00 | 0.00 | 0.00 | 90 | 1015.4 |
| 20260508004311 | 8 | 355 | 0.0 | 1.6 | 0.00 | 0.00 | 0.00 | 90 | 1015.4 |
| 20260508003525 | 8 | 355 | 0.0 | 1.6 | 0.00 | 0.00 | 0.00 | 90 | 1015.4 |
| 20260508003018 | 8 | 355 | 0.0 | 1.6 | 0.00 | 0.00 | 0.00 | 90 | 1015.4 |
| 20260508002512 | 8 | 355 | 0.0 | 3.2 | 0.00 | 0.00 | 0.00 | 90 | 1015.4 |
| 20260508002005 | 8 | 355 | 0.0 | 3.2 | 0.00 | 0.00 | 0.00 | 90 | 1015.4 |
| 20260508001506 | 8 | 19 | 0.0 | 1.6 | 0.00 | 0.00 | 0.00 | 89 | 1015.4 |
| 20260508001006 | 8 | 19 | 0.0 | 1.6 | 0.00 | 0.00 | 0.00 | 89 | 1015.5 |
| 20260508000506 | 8 | 19 | 0.0 | 1.6 | 0.00 | 0.00 | 0.00 | 89 | 1015.7 |
| 20260508000005 | 8 | 19 | 0.0 | 3.2 | 0.00 | 0.00 | 0.00 | 89 | 1015.7 |
| 20260507235503 | 8 | 19 | 0.0 | 3.2 | 0.00 | 0.00 | 0.00 | 89 | 1015.7 |
| 20260507235004 | 8 | 351 | 0.0 | 3.2 | 0.00 | 0.00 | 0.00 | 88 | 1015.7 |
| 20260507234503 | 8 | 351 | 0.0 | 3.2 | 0.00 | 0.00 | 0.00 | 88 | 1015.7 |
| 20260507234003 | 8 | 351 | 0.0 | 1.6 | 0.00 | 0.00 | 0.00 | 89 | 1015.8 |
| 20260507233504 | 9 | 351 | 0.0 | 1.6 | 0.00 | 0.00 | 0.00 | 88 | 1015.8 |
| 20260507233003 | 9 | 69 | 0.0 | 1.6 | 0.00 | 0.00 | 0.00 | 88 | 1015.8 |
| 20260507232504 | 9 | 69 | 0.0 | 1.6 | 0.00 | 0.00 | 0.00 | 88 | 1015.8 |
| 20260507232005 | 9 | 69 | 0.0 | 1.6 | 0.00 | 0.00 | 0.00 | 88 | 1015.8 |